OVO648D ZYTX-ZSPD

Flight info

Callsign OVO648D
Flight time N/A
Altitude 33100
Route ANSUK A345 DDG DCT BIGBU/K0835S1040 DCT DONVO/K0841S1010 A326 IVPIP/K0843S1040 DCT SOSMA/K0841S1070 W108 MATNU
Aircraft A20N/M-SDE2E3FGHIRWXY/LB1

Departure

Time 2026-04-19 01:40
Airport Shenyang Taoxian International Airport (ZYTX)

Arrival

Time N/A
Airport Shanghai Pudong International Airport (ZSPD)
Time Latitude Longitude Altitude Speed Heading
2026-04-19 01:16 41.63107 123.48493 206 ft 0 kts 48°
2026-04-19 01:24 41.63098 123.48480 206 ft 2 kts 47°
2026-04-19 01:24 41.63088 123.48465 206 ft 2 kts 48°
2026-04-19 01:25 41.63078 123.48450 206 ft 2 kts 48°
2026-04-19 01:25 41.63068 123.48436 206 ft 2 kts 48°
2026-04-19 01:25 41.63059 123.48422 206 ft 0 kts 48°
2026-04-19 01:25 41.63052 123.48412 206 ft 2 kts 31°
2026-04-19 01:26 41.63038 123.48405 206 ft 2 kts
2026-04-19 01:26 41.63023 123.48405 206 ft 2 kts 343°
2026-04-19 01:26 41.63011 123.48413 206 ft 0 kts 321°
2026-04-19 01:26 41.63006 123.48419 206 ft 1 kts 317°
2026-04-19 01:27 41.63005 123.48420 206 ft 0 kts 317°
2026-04-19 01:28 41.63008 123.48417 206 ft 2 kts 317°
2026-04-19 01:29 41.63027 123.48392 206 ft 5 kts 316°
2026-04-19 01:29 41.63059 123.48355 206 ft 6 kts 316°
2026-04-19 01:29 41.63091 123.48308 206 ft 7 kts 294°
2026-04-19 01:29 41.63100 123.48239 206 ft 7 kts 273°
2026-04-19 01:30 41.63108 123.48169 206 ft 7 kts 296°
2026-04-19 01:30 41.63147 123.48115 206 ft 8 kts 316°
2026-04-19 01:30 41.63192 123.48058 206 ft 9 kts 316°
2026-04-19 01:30 41.63244 123.47996 206 ft 10 kts 317°
2026-04-19 01:31 41.63298 123.47930 206 ft 10 kts 319°
2026-04-19 01:31 41.63309 123.47918 206 ft 0 kts 319°
2026-04-19 01:32 41.63310 123.47917 206 ft 1 kts 319°
2026-04-19 01:32 41.63319 123.47907 206 ft 2 kts 318°
2026-04-19 01:32 41.63340 123.47884 206 ft 5 kts 320°
2026-04-19 01:32 41.63373 123.47849 206 ft 6 kts 328°
2026-04-19 01:33 41.63424 123.47849 206 ft 8 kts 27°
2026-04-19 01:33 41.63471 123.47910 206 ft 10 kts 48°
2026-04-19 01:33 41.63521 123.47986 206 ft 10 kts 50°
2026-04-19 01:33 41.63570 123.48064 206 ft 11 kts 47°
2026-04-19 01:34 41.63629 123.48149 206 ft 12 kts 47°
2026-04-19 01:34 41.63691 123.48241 206 ft 13 kts 49°
2026-04-19 01:34 41.63755 123.48339 206 ft 14 kts 47°
2026-04-19 01:34 41.63823 123.48441 206 ft 14 kts 49°
2026-04-19 01:35 41.63893 123.48547 206 ft 15 kts 47°
2026-04-19 01:35 41.63965 123.48654 206 ft 15 kts 48°
2026-04-19 01:35 41.64040 123.48767 206 ft 16 kts 49°
2026-04-19 01:35 41.64114 123.48878 206 ft 16 kts 47°
2026-04-19 01:36 41.64192 123.48991 206 ft 16 kts 48°
2026-04-19 01:36 41.64268 123.49109 206 ft 16 kts 48°
2026-04-19 01:36 41.64344 123.49228 206 ft 17 kts 49°
2026-04-19 01:36 41.64423 123.49348 206 ft 17 kts 48°
2026-04-19 01:37 41.64502 123.49468 206 ft 17 kts 49°
2026-04-19 01:37 41.64582 123.49589 206 ft 17 kts 49°
2026-04-19 01:37 41.64661 123.49709 206 ft 17 kts 48°
2026-04-19 01:37 41.64742 123.49827 206 ft 17 kts 47°
2026-04-19 01:38 41.64796 123.49901 206 ft 6 kts 31°
2026-04-19 01:38 41.64841 123.49893 206 ft 7 kts 313°
2026-04-19 01:38 41.64882 123.49839 206 ft 8 kts 317°
2026-04-19 01:38 41.64921 123.49776 206 ft 8 kts 289°
2026-04-19 01:39 41.64900 123.49706 206 ft 8 kts 225°
2026-04-19 01:39 41.64806 123.49570 206 ft 50 kts 227°
2026-04-19 01:39 41.64421 123.48983 206 ft 116 kts 226°
2026-04-19 01:39 41.63757 123.47981 282 ft 161 kts 225°
2026-04-19 01:40 41.63032 123.46864 932 ft 160 kts 226°
2026-04-19 01:40 41.62325 123.45755 1700 ft 158 kts 226°
2026-04-19 01:40 41.61622 123.44661 2345 ft 163 kts 226°
2026-04-19 01:40 41.60840 123.43454 2765 ft 179 kts 227°
2026-04-19 01:41 41.59986 123.42137 3080 ft 202 kts 227°
2026-04-19 01:41 41.59034 123.40665 3534 ft 220 kts 228°
2026-04-19 01:41 41.57943 123.39150 4064 ft 234 kts 215°
2026-04-19 01:41 41.56408 123.38401 4819 ft 244 kts 189°
2026-04-19 01:42 41.54710 123.38650 5669 ft 256 kts 167°
2026-04-19 01:42 41.53081 123.39723 6489 ft 264 kts 159°
2026-04-19 01:42 41.49808 123.42067 7976 ft 274 kts 159°
2026-04-19 01:43 41.48124 123.43286 8684 ft 280 kts 155°
2026-04-19 01:43 41.46611 123.45021 9360 ft 299 kts 133°
2026-04-19 01:43 41.45597 123.47501 10048 ft 313 kts 116°
2026-04-19 01:43 41.44817 123.50250 10588 ft 325 kts 114°
2026-04-19 01:44 41.44024 123.53148 10921 ft 342 kts 114°
2026-04-19 01:44 41.43189 123.56144 11221 ft 359 kts 113°
2026-04-19 01:44 41.42379 123.59412 11530 ft 376 kts 109°
2026-04-19 01:44 41.41760 123.62843 12042 ft 386 kts 103°
2026-04-19 01:45 41.41305 123.66378 12729 ft 388 kts 101°
2026-04-19 01:45 41.40882 123.69930 13415 ft 389 kts 101°
2026-04-19 01:45 41.40465 123.73461 14047 ft 392 kts 101°
2026-04-19 01:45 41.40038 123.77035 14648 ft 395 kts 101°
2026-04-19 01:46 41.39598 123.80640 15242 ft 398 kts 101°
2026-04-19 01:46 41.39147 123.84286 15788 ft 402 kts 101°
2026-04-19 01:46 41.38684 123.87971 16376 ft 404 kts 102°
2026-04-19 01:46 41.38010 123.91623 16926 ft 406 kts 110°
2026-04-19 01:47 41.37004 123.95122 17428 ft 407 kts 117°
2026-04-19 01:47 41.35723 123.98492 17923 ft 410 kts 121°
2026-04-19 01:47 41.34365 124.01842 18396 ft 414 kts 121°
2026-04-19 01:47 41.32989 124.05213 18856 ft 417 kts 121°
2026-04-19 01:48 41.31613 124.08611 19325 ft 421 kts 121°
2026-04-19 01:48 41.30238 124.12012 19774 ft 423 kts 122°
2026-04-19 01:48 41.28456 124.15070 20165 ft 420 kts 142°
2026-04-19 01:48 41.26013 124.17086 20668 ft 412 kts 162°
2026-04-19 01:49 41.23233 124.17941 21151 ft 405 kts 179°
2026-04-19 01:49 41.20421 124.18148 21565 ft 408 kts 181°
2026-04-19 01:49 41.17585 124.18326 21953 ft 413 kts 180°
2026-04-19 01:49 41.14717 124.18529 22440 ft 414 kts 180°
2026-04-19 01:50 41.11816 124.18758 22912 ft 416 kts 180°
2026-04-19 01:50 41.08916 124.18996 23324 ft 419 kts 180°
2026-04-19 01:50 41.06000 124.19241 23726 ft 423 kts 180°
2026-04-19 01:50 41.03058 124.19514 24107 ft 426 kts 178°
2026-04-19 01:51 41.00124 124.19842 24487 ft 430 kts 178°
2026-04-19 01:51 40.97131 124.20195 24879 ft 432 kts 178°
2026-04-19 01:51 40.94120 124.20546 25243 ft 435 kts 178°
2026-04-19 01:51 40.91087 124.20899 25564 ft 439 kts 178°
2026-04-19 01:52 40.88021 124.21251 25775 ft 445 kts 178°
2026-04-19 01:52 40.84900 124.21608 26020 ft 449 kts 178°
2026-04-19 01:52 40.81780 124.21964 26315 ft 452 kts 178°
2026-04-19 01:52 40.78637 124.22323 26607 ft 455 kts 178°
2026-04-19 01:53 40.75479 124.22684 26878 ft 458 kts 178°
2026-04-19 01:53 40.72317 124.23043 27150 ft 461 kts 178°
2026-04-19 01:53 40.69096 124.23410 27416 ft 463 kts 178°
2026-04-19 01:53 40.65885 124.23777 27781 ft 463 kts 178°
2026-04-19 01:54 40.62707 124.24136 28185 ft 461 kts 177°
2026-04-19 01:54 40.59522 124.24498 28558 ft 461 kts 178°
2026-04-19 01:54 40.56343 124.24857 28906 ft 460 kts 177°
2026-04-19 01:54 40.53149 124.25219 29244 ft 460 kts 177°
2026-04-19 01:55 40.49966 124.25580 29568 ft 460 kts 177°
2026-04-19 01:55 40.46772 124.25942 29884 ft 459 kts 177°
2026-04-19 01:55 40.43600 124.26301 30195 ft 459 kts 177°
2026-04-19 01:55 40.40430 124.26658 30484 ft 459 kts 177°
2026-04-19 01:56 40.37240 124.27018 30780 ft 459 kts 177°
2026-04-19 01:56 40.34071 124.27375 31068 ft 458 kts 177°
2026-04-19 01:56 40.30886 124.27683 31342 ft 458 kts 179°
2026-04-19 01:56 40.27678 124.27761 31565 ft 458 kts 183°
2026-04-19 01:57 40.24477 124.27579 31775 ft 458 kts 187°
2026-04-19 01:57 40.21300 124.27136 31960 ft 458 kts 191°
2026-04-19 01:57 40.18153 124.26444 32138 ft 458 kts 194°
2026-04-19 01:57 40.15024 124.25633 32310 ft 460 kts 194°
2026-04-19 01:58 40.11926 124.24827 32493 ft 461 kts 194°
2026-04-19 01:58 40.08779 124.24013 32697 ft 462 kts 194°
2026-04-19 01:58 40.05621 124.23203 32898 ft 463 kts 194°
2026-04-19 01:58 40.02464 124.22397 33066 ft 464 kts 194°
2026-04-19 01:59 39.99277 124.21585 33070 ft 464 kts 194°
2026-04-19 01:59 39.92944 124.19971 33080 ft 465 kts 194°
2026-04-19 02:00 39.86589 124.18359 33082 ft 467 kts 194°
2026-04-19 02:00 39.80209 124.16743 33082 ft 466 kts 194°
2026-04-19 02:01 39.73830 124.15131 33084 ft 467 kts 194°
2026-04-19 02:01 39.67472 124.13530 33085 ft 468 kts 194°
2026-04-19 02:02 39.61065 124.11917 33084 ft 468 kts 194°
2026-04-19 02:02 39.54697 124.10317 33085 ft 469 kts 194°
2026-04-19 02:03 39.48299 124.08714 33082 ft 469 kts 193°
2026-04-19 02:03 39.41878 124.07107 33085 ft 469 kts 194°
2026-04-19 02:04 39.35473 124.05507 33085 ft 470 kts 193°
2026-04-19 02:04 39.29042 124.03902 33086 ft 472 kts 193°
2026-04-19 02:05 39.22625 124.02307 33086 ft 472 kts 194°
2026-04-19 02:05 39.16128 124.00693 33087 ft 473 kts 194°
2026-04-19 02:06 39.09695 123.99094 33087 ft 474 kts 193°
2026-04-19 02:06 39.03196 123.97488 33087 ft 474 kts 193°
2026-04-19 02:07 38.96721 123.95891 33085 ft 475 kts 193°
2026-04-19 02:07 38.90262 123.94298 33081 ft 475 kts 193°
2026-04-19 02:08 38.83763 123.92697 33084 ft 475 kts 193°
2026-04-19 02:08 38.77278 123.91108 33086 ft 474 kts 193°
2026-04-19 02:09 38.70838 123.89453 33088 ft 473 kts 196°
2026-04-19 02:09 38.64532 123.87009 33086 ft 470 kts 203°
2026-04-19 02:10 38.58478 123.83951 33087 ft 469 kts 205°
2026-04-19 02:10 38.52427 123.80878 33086 ft 471 kts 205°
2026-04-19 02:11 38.46318 123.77797 33085 ft 471 kts 204°
2026-04-19 02:11 38.40249 123.74748 33085 ft 470 kts 204°
2026-04-19 02:12 38.34144 123.71690 33086 ft 470 kts 204°
2026-04-19 02:12 38.28093 123.68662 33085 ft 470 kts 204°
2026-04-19 02:13 38.22008 123.65620 33085 ft 470 kts 204°
2026-04-19 02:13 38.15933 123.62592 33086 ft 470 kts 204°
2026-04-19 02:14 38.09824 123.59551 33089 ft 470 kts 204°
2026-04-19 02:14 38.03754 123.56537 33087 ft 470 kts 204°
2026-04-19 02:15 37.97666 123.53519 33089 ft 470 kts 204°
2026-04-19 02:15 37.91595 123.50512 33082 ft 469 kts 204°
2026-04-19 02:16 37.85515 123.47508 33085 ft 471 kts 204°
2026-04-19 02:16 37.79408 123.44500 33090 ft 471 kts 204°
2026-04-19 02:17 37.73280 123.41479 33102 ft 471 kts 203°
2026-04-19 02:17 37.67222 123.38503 33100 ft 470 kts 203°
2026-04-19 02:18 37.61028 123.35762 33104 ft 470 kts 197°
2026-04-19 02:18 37.54619 123.34064 33110 ft 471 kts 188°
2026-04-19 02:19 37.48088 123.33514 33104 ft 473 kts 180°
2026-04-19 02:19 37.41533 123.33710 33104 ft 472 kts 178°
2026-04-19 02:20 37.31694 123.34029 33105 ft 471 kts 178°
2026-04-19 02:20 37.25158 123.34218 33100 ft 470 kts 178°
2026-04-19 02:21 37.18619 123.34404 33106 ft 470 kts 178°
2026-04-19 02:21 37.12079 123.34587 33101 ft 470 kts 178°
2026-04-19 02:22 37.05563 123.34772 33108 ft 469 kts 178°
2026-04-19 02:22 36.98997 123.34958 33110 ft 469 kts 178°
2026-04-19 02:23 36.92487 123.35139 33102 ft 468 kts 178°
2026-04-19 02:23 36.85935 123.35326 33110 ft 467 kts 179°
2026-04-19 02:24 36.79413 123.35506 33113 ft 467 kts 178°
2026-04-19 02:24 36.72921 123.35686 33112 ft 466 kts 179°
2026-04-19 02:25 36.66389 123.35868 33111 ft 466 kts 179°
2026-04-19 02:25 36.59900 123.36047 33113 ft 466 kts 179°
2026-04-19 02:26 36.53417 123.36228 33113 ft 465 kts 179°
2026-04-19 02:26 36.46915 123.36410 33113 ft 465 kts 179°
2026-04-19 02:27 36.40569 123.36587 33112 ft 465 kts 179°
2026-04-19 02:27 36.34103 123.36765 33110 ft 465 kts 179°
2026-04-19 02:28 36.27664 123.36945 33112 ft 464 kts 179°
2026-04-19 02:28 36.21184 123.37128 33115 ft 464 kts 179°
2026-04-19 02:29 36.14724 123.37312 33116 ft 464 kts 179°
2026-04-19 02:29 36.08283 123.37492 33113 ft 464 kts 179°
2026-04-19 02:30 36.01812 123.37675 33115 ft 464 kts 179°
2026-04-19 02:30 35.95385 123.37856 33114 ft 463 kts 179°
2026-04-19 02:31 35.88933 123.38038 33116 ft 463 kts 179°
2026-04-19 02:31 35.82480 123.38219 33114 ft 463 kts 179°
2026-04-19 02:32 35.76037 123.38399 33111 ft 462 kts 179°
2026-04-19 02:32 35.69615 123.38577 33115 ft 463 kts 179°
2026-04-19 02:33 35.63169 123.38757 33109 ft 462 kts 179°
2026-04-19 02:33 35.56758 123.38937 33107 ft 462 kts 179°
2026-04-19 02:34 35.50327 123.39116 33105 ft 461 kts 179°
2026-04-19 02:34 35.43884 123.39296 33102 ft 461 kts 179°
2026-04-19 02:35 35.37446 123.39474 33097 ft 461 kts 179°
2026-04-19 02:35 35.31079 123.39651 33100 ft 461 kts 179°
2026-04-19 02:36 35.24628 123.39832 33100 ft 461 kts 179°
2026-04-19 02:36 35.18270 123.40008 33100 ft 460 kts 179°
2026-04-19 02:37 35.11857 123.40185 33099 ft 460 kts 179°
2026-04-19 02:37 35.05476 123.40361 33094 ft 459 kts 179°
2026-04-19 02:38 34.99055 123.40595 33096 ft 459 kts 177°
2026-04-19 02:38 34.92698 123.41102 33091 ft 459 kts 179°
2026-04-19 02:39 34.86399 123.40134 33091 ft 457 kts 197°
2026-04-19 02:39 34.80637 123.36980 33088 ft 456 kts 214°
2026-04-19 02:40 34.75872 123.31932 33085 ft 454 kts 231°
2026-04-19 02:40 34.72086 123.25835 33085 ft 454 kts 235°
2026-04-19 02:41 34.68341 123.19614 33083 ft 454 kts 235°
2026-04-19 02:41 34.64605 123.13460 33084 ft 454 kts 235°
2026-04-19 02:42 34.60851 123.07312 33086 ft 454 kts 235°
2026-04-19 02:42 34.57069 123.01141 33085 ft 454 kts 235°
2026-04-19 02:43 34.53285 122.94974 33084 ft 454 kts 235°
2026-04-19 02:43 34.49514 122.88847 33086 ft 454 kts 236°
2026-04-19 02:44 34.45729 122.82699 33092 ft 454 kts 235°
2026-04-19 02:44 34.41920 122.76524 33089 ft 454 kts 235°
2026-04-19 02:45 34.38162 122.70451 33090 ft 454 kts 236°
2026-04-19 02:45 34.34354 122.64301 33093 ft 454 kts 236°
2026-04-19 02:46 34.30523 122.58126 33091 ft 454 kts 236°
2026-04-19 02:46 34.26686 122.51950 33089 ft 454 kts 236°